Time,TemperatureF,DewpointF,PressureIn,WindDirection,WindDirectionDegrees,WindSpeedMPH,WindSpeedGustMPH,Humidity,HourlyPrecipIn,Conditions,Clouds,dailyrainin,SoftwareType,DateUTC
2013-01-11 00:09:00,46.7,28.0,30.32,NW,324,5.0,16.0,49,0.00,,,0.00,weatherlink.com 1.10,2013-01-11 05:09:00,
2013-01-11 00:27:00,46.5,28.0,30.30,WNW,295,11.0,18.0,49,0.00,,,0.00,weatherlink.com 1.10,2013-01-11 05:27:00,
2013-01-11 00:45:00,46.2,29.0,30.30,NW,304,3.0,18.0,51,0.00,,,0.00,weatherlink.com 1.10,2013-01-11 05:45:00,
2013-01-11 01:05:00,45.8,29.0,30.30,WNW,301,4.0,18.0,52,0.00,,,0.00,weatherlink.com 1.10,2013-01-11 06:05:00,
2013-01-11 01:23:00,45.7,29.0,30.29,WNW,295,8.0,18.0,53,0.00,,,0.00,weatherlink.com 1.10,2013-01-11 06:23:00,
2013-01-11 01:41:00,45.7,29.0,30.29,NW,319,11.0,18.0,53,0.00,,,0.00,weatherlink.com 1.10,2013-01-11 06:41:00,
2013-01-11 02:01:00,45.5,30.0,30.28,WNW,287,6.0,17.0,54,0.00,,,0.00,weatherlink.com 1.10,2013-01-11 07:01:00,
2013-01-11 02:19:00,45.3,30.0,30.28,SSW,195,4.0,18.0,55,0.00,,,0.00,weatherlink.com 1.10,2013-01-11 07:19:00,
2013-01-11 02:37:00,45.3,30.0,30.27,NNW,333,13.0,16.0,55,0.00,,,0.00,weatherlink.com 1.10,2013-01-11 07:37:00,
2013-01-11 02:55:00,45.2,30.0,30.27,North,352,9.0,21.0,55,0.00,,,0.00,weatherlink.com 1.10,2013-01-11 07:55:00,
2013-01-11 03:15:00,45.2,30.0,30.27,NW,311,15.0,17.0,55,0.00,,,0.00,weatherlink.com 1.10,2013-01-11 08:15:00,
2013-01-11 03:32:00,45.1,30.0,30.26,West,276,9.0,18.0,55,0.00,,,0.00,weatherlink.com 1.10,2013-01-11 08:32:00,
2013-01-11 03:52:00,45.1,30.0,30.26,West,262,7.0,24.0,55,0.00,,,0.00,weatherlink.com 1.10,2013-01-11 08:52:00,
2013-01-11 04:10:00,45.2,30.0,30.24,North,351,5.0,18.0,56,0.00,,,0.00,weatherlink.com 1.10,2013-01-11 09:10:00,
2013-01-11 04:28:00,45.5,30.0,30.23,NW,304,8.0,18.0,56,0.00,,,0.00,weatherlink.com 1.10,2013-01-11 09:28:00,
2013-01-11 04:48:00,45.5,31.0,30.22,NW,323,8.0,14.0,57,0.00,,,0.00,weatherlink.com 1.10,2013-01-11 09:48:00,
2013-01-11 05:23:00,44.9,30.0,30.20,NNW,346,2.0,20.0,57,0.00,,,0.00,weatherlink.com 1.10,2013-01-11 10:23:00,
2013-01-11 05:43:00,45.2,31.0,30.18,West,269,5.0,20.0,57,0.00,,,0.00,weatherlink.com 1.10,2013-01-11 10:43:00,
2013-01-11 06:01:00,45.4,32.0,30.21,NNW,346,4.0,18.0,59,0.00,,,0.00,weatherlink.com 1.10,2013-01-11 11:01:00,
2013-01-11 06:19:00,45.8,32.0,30.20,WNW,297,5.0,17.0,59,0.00,,,0.00,weatherlink.com 1.10,2013-01-11 11:19:00,
2013-01-11 06:39:00,46.0,32.0,30.20,WNW,293,7.0,16.0,58,0.00,,,0.00,weatherlink.com 1.10,2013-01-11 11:39:00,
2013-01-11 06:57:00,45.8,34.0,30.21,NW,326,3.0,22.0,63,0.00,,,0.00,weatherlink.com 1.10,2013-01-11 11:57:00,
2013-01-11 07:15:00,45.4,32.0,30.23,West,273,2.0,16.0,60,0.00,,,0.00,weatherlink.com 1.10,2013-01-11 12:15:00,
2013-01-11 07:33:00,42.6,36.0,30.21,NW,314,6.0,15.0,77,0.02,,,0.02,weatherlink.com 1.10,2013-01-11 12:33:00,
2013-01-11 07:53:00,43.2,36.0,30.19,East,89,6.0,14.0,75,0.02,,,0.02,weatherlink.com 1.10,2013-01-11 12:53:00,
2013-01-11 08:13:00,43.4,36.0,30.17,NNE,28,6.0,15.0,75,0.02,,,0.02,weatherlink.com 1.10,2013-01-11 13:13:00,
2013-01-11 08:30:00,44.5,37.0,30.16,WNW,291,5.0,20.0,74,0.00,,,0.02,weatherlink.com 1.10,2013-01-11 13:30:00,
2013-01-11 08:48:00,45.2,37.0,30.14,West,269,13.0,21.0,73,0.00,,,0.02,weatherlink.com 1.10,2013-01-11 13:48:00,
2013-01-11 09:06:00,45.3,37.0,30.14,NNW,329,2.0,22.0,72,0.00,,,0.02,weatherlink.com 1.10,2013-01-11 14:06:00,
2013-01-11 09:26:00,45.3,36.0,30.13,WNW,282,10.0,17.0,69,0.00,,,0.02,weatherlink.com 1.10,2013-01-11 14:26:00,
2013-01-11 09:44:00,45.7,36.0,30.11,WNW,302,9.0,19.0,68,0.00,,,0.02,weatherlink.com 1.10,2013-01-11 14:44:00,
2013-01-11 10:02:00,46.4,36.0,30.11,NW,306,9.0,16.0,67,0.00,,,0.02,weatherlink.com 1.10,2013-01-11 15:02:00,
2013-01-11 10:20:00,46.8,36.0,30.10,WNW,285,9.0,19.0,67,0.00,,,0.02,weatherlink.com 1.10,2013-01-11 15:20:00,
2013-01-11 10:40:00,47.4,36.0,30.08,WNW,300,12.0,20.0,65,0.00,,,0.02,weatherlink.com 1.10,2013-01-11 15:40:00,
2013-01-11 10:58:00,48.4,36.0,30.08,WSW,242,1.0,14.0,63,0.00,,,0.02,weatherlink.com 1.10,2013-01-11 15:58:00,
2013-01-11 11:16:00,48.3,36.0,30.06,ESE,104,7.0,12.0,63,0.00,,,0.02,weatherlink.com 1.10,2013-01-11 16:16:00,
2013-01-11 11:35:00,46.3,39.0,30.05,WNW,295,3.0,18.0,76,0.02,,,0.04,weatherlink.com 1.10,2013-01-11 16:35:00,
2013-01-11 11:55:00,45.8,41.0,30.01,NW,312,6.0,19.0,82,0.05,,,0.07,weatherlink.com 1.10,2013-01-11 16:55:00,
2013-01-11 12:13:00,46.8,41.0,29.99,NW,313,5.0,18.0,81,0.06,,,0.08,weatherlink.com 1.10,2013-01-11 17:13:00,
2013-01-11 12:31:00,47.9,41.0,30.00,NW,324,5.0,19.0,78,0.05,,,0.08,weatherlink.com 1.10,2013-01-11 17:31:00,
2013-01-11 12:49:00,46.9,42.0,30.01,ENE,68,3.0,18.0,84,0.04,,,0.10,weatherlink.com 1.10,2013-01-11 17:49:00,
2013-01-11 13:09:00,47.4,43.0,30.03,NNE,23,6.0,16.0,86,0.07,,,0.15,weatherlink.com 1.10,2013-01-11 18:09:00,
2013-01-11 13:27:00,47.6,45.0,30.03,East,81,7.0,8.0,90,0.09,,,0.17,weatherlink.com 1.10,2013-01-11 18:27:00,
2013-01-11 13:45:00,47.9,45.0,30.03,NE,37,6.0,15.0,90,0.08,,,0.17,weatherlink.com 1.10,2013-01-11 18:45:00,
2013-01-11 14:05:00,48.9,46.0,30.02,NNE,13,10.0,16.0,90,0.03,,,0.17,weatherlink.com 1.10,2013-01-11 19:05:00,
2013-01-11 14:23:00,49.3,46.0,30.02,SE,124,3.0,17.0,89,0.01,,,0.18,weatherlink.com 1.10,2013-01-11 19:23:00,
2013-01-11 14:41:00,48.8,47.0,30.02,NNW,331,2.0,11.0,92,0.03,,,0.20,weatherlink.com 1.10,2013-01-11 19:41:00,
2013-01-11 15:01:00,49.1,47.0,30.02,NNW,328,4.0,10.0,93,0.05,,,0.22,weatherlink.com 1.10,2013-01-11 20:01:00,
2013-01-11 15:19:00,49.6,47.0,30.02,NNE,25,3.0,11.0,91,0.04,,,0.22,weatherlink.com 1.10,2013-01-11 20:19:00,
2013-01-11 15:37:00,49.6,47.0,30.02,SSW,194,1.0,9.0,92,0.08,,,0.27,weatherlink.com 1.10,2013-01-11 20:37:00,
2013-01-11 15:56:00,49.8,48.0,30.02,West,270,3.0,11.0,93,0.05,,,0.27,weatherlink.com 1.10,2013-01-11 20:56:00,
2013-01-11 16:14:00,51.3,50.0,30.01,East,93,3.0,13.0,94,0.07,,,0.29,weatherlink.com 1.10,2013-01-11 21:14:00,
2013-01-11 16:34:00,51.9,49.0,30.01,NNW,336,2.0,12.0,91,0.03,,,0.29,weatherlink.com 1.10,2013-01-11 21:34:00,
2013-01-11 16:52:00,51.8,49.0,30.01,NE,48,5.0,16.0,91,0.02,,,0.29,weatherlink.com 1.10,2013-01-11 21:52:00,
2013-01-11 17:10:00,51.7,49.0,30.01,ENE,57,3.0,11.0,91,0.00,,,0.29,weatherlink.com 1.10,2013-01-11 22:10:00,
2013-01-11 17:30:00,52.4,50.0,30.01,NNE,28,6.0,9.0,91,0.00,,,0.29,weatherlink.com 1.10,2013-01-11 22:30:00,
2013-01-11 17:48:00,51.7,49.0,30.02,ENE,60,2.0,9.0,90,0.00,,,0.29,weatherlink.com 1.10,2013-01-11 22:48:00,
2013-01-11 18:06:00,51.9,50.0,30.02,NNE,33,0.0,6.0,93,0.00,,,0.29,weatherlink.com 1.10,2013-01-11 23:06:00,
2013-01-11 18:24:00,51.7,50.0,30.03,NNE,26,2.0,3.0,94,0.00,,,0.29,weatherlink.com 1.10,2013-01-11 23:24:00,
2013-01-11 18:44:00,51.8,50.0,30.03,NE,37,1.0,3.0,94,0.00,,,0.29,weatherlink.com 1.10,2013-01-11 23:44:00,
2013-01-11 19:02:00,51.6,50.0,30.03,ENE,61,2.0,6.0,95,0.00,,,0.29,weatherlink.com 1.10,2013-01-12 00:02:00,
2013-01-11 19:20:00,52.2,51.0,30.03,NE,49,4.0,6.0,94,0.00,,,0.29,weatherlink.com 1.10,2013-01-12 00:20:00,
2013-01-11 19:40:00,52.4,51.0,30.03,ENE,63,4.0,6.0,95,0.00,,,0.29,weatherlink.com 1.10,2013-01-12 00:40:00,
2013-01-11 19:58:00,52.4,51.0,30.03,ENE,77,3.0,5.0,95,0.00,,,0.29,weatherlink.com 1.10,2013-01-12 00:58:00,
2013-01-11 20:16:00,52.4,51.0,30.03,NE,46,1.0,6.0,94,0.00,,,0.29,weatherlink.com 1.10,2013-01-12 01:16:00,
2013-01-11 20:36:00,52.4,51.0,30.03,NE,43,2.0,5.0,94,0.00,,,0.29,weatherlink.com 1.10,2013-01-12 01:36:00,
2013-01-11 20:54:00,52.7,51.0,30.04,North,360,1.0,5.0,94,0.00,,,0.29,weatherlink.com 1.10,2013-01-12 01:54:00,
2013-01-11 21:12:00,52.7,51.0,30.04,NE,54,2.0,4.0,93,0.00,,,0.29,weatherlink.com 1.10,2013-01-12 02:12:00,
2013-01-11 21:30:00,52.4,51.0,30.04,NE,46,0.0,3.0,93,0.00,,,0.29,weatherlink.com 1.10,2013-01-12 02:30:00,
2013-01-11 21:50:00,51.8,51.0,30.03,NE,43,0.0,2.0,95,0.00,,,0.29,weatherlink.com 1.10,2013-01-12 02:50:00,
2013-01-11 22:08:00,51.4,50.0,30.04,ENE,58,0.0,2.0,96,0.00,,,0.29,weatherlink.com 1.10,2013-01-12 03:08:00,
2013-01-11 22:26:00,50.8,50.0,30.04,ENE,58,0.0,1.0,96,0.00,,,0.29,weatherlink.com 1.10,2013-01-12 03:26:00,
2013-01-11 22:46:00,50.3,49.0,30.05,ENE,63,0.0,0.0,96,0.00,,,0.29,weatherlink.com 1.10,2013-01-12 03:46:00,
2013-01-11 23:04:00,49.5,49.0,30.04,ENE,64,0.0,0.0,97,0.00,,,0.29,weatherlink.com 1.10,2013-01-12 04:04:00,
2013-01-11 23:22:00,49.1,48.0,30.03,ENE,64,0.0,1.0,97,0.00,,,0.29,weatherlink.com 1.10,2013-01-12 04:22:00,